Regional Weather Roundup
Issued by NWS

Home | Current Version | Previous Version | Text Only | Print | Product List | Glossary On
Versions: 1 2 3 4 5 6 7 8 9 10 11 12 13 14 15 16 17 18 19 20 21 22 23 24 25 26 27 28 29 30 31 32 33 34 35 36 37 38 39 40 41 42 43 44 45 46 47 48 49 50
000
ASUS43 KLOT 280706
RWRIL

ILLINOIS REGIONAL WEATHER ROUNDUP
NATIONAL WEATHER SERVICE CHICAGO/ROMEOVILLE IL
200 AM CDT MON JUL 28 2014

NOTE: "FAIR" INDICATES FEW OR NO CLOUDS BELOW 12,000 FEET WITH NO
SIGNIFICANT WEATHER AND/OR OBSTRUCTIONS TO VISIBILITY.

* THESE STATIONS ARE NOT UNDER NWS QUALITY CONTROL. THEY ALSO MAY NOT
  REPORT WEATHER SUCH AS PRECIPITATION OR FOG.

ILZ001-002-007-009-015-016-024-280800-
NORTHWEST ILLINOIS

CITY           SKY/WX    TMP DP  RH WIND       PRES   REMARKS
MOLINE         CLEAR     66  59  78 NW7       30.00R
STERLING*      PTCLDY    64  57  77 NE8       30.00R
SAVANNA*       MOCLDY    65  57  75 N6        30.01R
$$

ILZ003-004-008-010-011-017-018-280800-
NORTH CENTRAL ILLINOIS

CITY           SKY/WX    TMP DP  RH WIND       PRES   REMARKS
ROCKFORD       CLEAR     63  54  72 N15       30.01R
FREEPORT*      CLEAR     58  54  84 N8G16     30.03R
ROCHELLE*      CLEAR     62  56  79 N12       29.99R
DE KALB*       CLEAR     59  54  82 N9        29.98R
PERU*          CLOUDY    64  60  88 N8        29.97S
$$

ILZ005-006-012>014-019>023-280800-
NORTHEAST ILLINOIS

CITY           SKY/WX    TMP DP  RH WIND       PRES   REMARKS
CHICAGO-OHARE  MOCLDY    65  50  58 N18       29.93R
CHICAGO-MIDWAY MOCLDY    67  52  58 N17G26    29.92R
AURORA         CLEAR     63  52  67 N13       29.96R
LANSING*       CLOUDY    65  52  63 N13G24    29.92R
JOLIET*        CLOUDY    65  55  69 N10       29.94S
WAUKEGAN       MOCLDY    61  52  72 NW7       29.94R
DUPAGE AIRPORT PTCLDY    63  53  70 N14       29.94R
KANKAKEE*      PTCLDY    64  57  80 N5        29.92S
WHEELING       PTCLDY    64  53  67 N13G23    29.95R
MORRIS*        MOCLDY    64  60  84 CALM      29.94R
ROMEOVILLE*    CLOUDY    65  53  65 N13       29.93S
NORTHERLY ISL    N/A     64  53  67 NW16        N/A
$$

LMZ740>746-280800-
SOUTHERN LAKE MICHIGAN

STATION/POSITION SKY/WX   TEMP    WIND        PRES    VSBY  WAVE
                          AIR SEA DIR/SP/G                  HT/PER
                          (F)     (DEG/KT/KT) (MB)    (MI)  (FT/S)
SOUTHERN BUOY              61 60  340/ 23/ 29 1011.8R         7/ 7
WAUKEGAN HARBOR            64     340/ 13/ 22   N/A
HARRISON CRIB              64     350/ 29/ 33   N/A
BURNHAM HARBOR             64     340/ 17/ 22   N/A
CALUMET HARBOR             64     340/ 17/ 23 1011.9R
BURNS HARBOR               65     360/ 25     1011.9F
MICHIGAN CITY              64     340/ 32/ 40   N/A
MICHIGAN CITY 6N           64 68  360/ 23/ 31   N/A          10/ 7
ST. JOSEPH                 62 64  350/ 19/ 27   N/A          10/ 7
$$

ILZ025>027-034>036-040-047-049-050-058-095>099-280800-
WEST-CENTRAL ILLINOIS

CITY           SKY/WX    TMP DP  RH WIND       PRES   REMARKS
QUINCY         CLEAR     64  58  80 NW9       30.02F
GALESBURG*     CLEAR     63  61  94 NW8       30.00R
MACOMB*        CLEAR     62  60  94 NW9       30.02S
JACKSONVILLE*  CLEAR     67  61  81 NW8       30.00S
PITTSFIELD*    CLEAR     66  58  75 W8        30.03S
$$

ILZ028>032-037-038-041>044-048-051>054-059>061-280800-
CENTRAL ILLINOIS

CITY           SKY/WX    TMP DP  RH WIND       PRES   REMARKS
PONTIAC        CLEAR     63  63 100 N5        29.94S
DECATUR        CLEAR     65  60  84 NW10      29.95R
PEORIA         CLEAR     65  60  84 NW5       29.97R
LACON*         CLEAR     64  59  83 N3        29.96R
LINCOLN*       CLEAR     65  60  86 NW3       29.94S
SPRINGFIELD    CLEAR     67  60  78 NW10      29.97S
TAYLORVILLE    CLEAR     63  59  88 W9        29.97R
$$

ILZ033-039-045-046-055>057-062-063-280800-
EAST-CENTRAL ILLINOIS

CITY           SKY/WX    TMP DP  RH WIND       PRES   REMARKS
CHAMPAIGN      CLEAR     63  60  90 NW8       29.93R
DANVILLE*      PTCLDY    64  60  87 NW10G16   29.88R
RANTOUL*       CLEAR     65  59  79 NW12      29.93R
MATTOON        CLEAR     63  59  87 W13       29.92S FOG
PARIS*         CLEAR     62  60  93 W6        29.91S
$$

ILZ079-100>102-280800-
SOUTHWEST ILLINOIS

CITY           SKY/WX    TMP DP  RH WIND       PRES   REMARKS
ALTON          CLEAR     68  60  76 NW12      30.00S
BELLEVILLE     CLEAR     70  59  68 W8        29.98S
CAHOKIA*       CLEAR     72  57  59 N16       29.99S
SPARTA*        CLEAR     68  57  68 NW5       29.99S
$$

ILZ064>066-069>071-074>076-080>082-084>086-088>090-092>094-280800-
SOUTH-CENTRAL ILLINOIS

CITY           SKY/WX    TMP DP  RH WIND       PRES   REMARKS
CARBONDALE     CLEAR     67  58  72 W6        29.98S
CAIRO*         CLEAR     71  60  67 N6        29.98S
EFFINGHAM*     CLEAR     67  56  67 NW10      29.95R
MARION         CLEAR     70  57  64 NW3       29.98S
MT. VERNON     CLEAR     70  55  60 NW3       29.97S
CENTRALIA*     CLEAR     68  57  67 NW12      29.97S
SALEM*         CLEAR    N/A N/A N/A NW8       29.97S
METROPOLIS*    CLEAR     70  55  59 NW3       29.97S
$$

ILZ067-068-072-073-078-083-087-091-280800-
SOUTHEAST ILLINOIS

CITY           SKY/WX    TMP DP  RH WIND       PRES   REMARKS
LAWRENCEVILLE  CLEAR     66  60  81 W9        29.92S
FLORA*         CLEAR     65  58  77 NW7       29.95S
FAIRFIELD*     CLEAR     68  61  77 NW5       29.95R
HARRISBURG*    CLEAR     67  59  76 NW5       29.97S
ROBINSON*      CLEAR     66  61  84 W9        29.93R
CARMI*         CLEAR     66  61  82 W6        29.94S
$$

ABBREVIATIONS USED IN REMARKS
   TC - TEMPERATURE IN CELSIUS
  WCI - WIND CHILL INDEX
   HX - HEAT INDEX
  VSB - VISIBILITY
$$




USA.gov is the U.S. government's official web portal to all federal, state and local government web resources and services.